Location: Ernsee
(50.8780°N, 12.0389°E)
Time: 22:15:08
(UTC+00:00)

SL-4 R/B - Pass Details

Date: 20 January 2020
Orbit: 428 x 666 km, 51.6° (Epoch: 17 February)

Event Time Altitude Azimuth Distance (km) Brightness Sun altitude
Exits shadow 04:39:31 43° 165° (SSE) 651 2.5 -22.3°
Drops below altitude 10° 04:42:12 10° 129° (SE) 1,553 5.1 -21.9°
Sets 04:44:17 0° 124° (SE) 2,403 6.3 -21.5°
